Portada
METAR-TAF:

METAR-TAF

Aeroports :

Searcy Municipal Airport

Searcy, Arkansas, Estats Units d'Amèrica

latitud: 35-12-43N, longitud: 091-44-14W, altitud: 81 m

Observació

L'informe es va fer fa 16 minuts, a les 10:30 UTC
Vent 7 kt del Nord/Nord-Est
Temperatura 11°C
Humitat 87%
Pressió 1021 hPa
Visibilitat: 16.1 km
Cel cobert a una alçada de 1300 ft

METAR: KSRC 261030Z AUTO 02007KT 10SM OVC013 11/09 A3014 RMK AO2

Hora: 05:46 (10:46 UTC)


TAF: manca

Observacions i pronòstics meteorològics de més de 4000 aeroports (METAR i TAF).

Les estacions disponibles són els punts grocs i vermells al mapa.

Posi el ratolí al punt desitjat per veure el nom de l'estació.

Feu clic per veure les observacions i els pronòstics meteorològics.

Per canviar el mapa: feu clic els botons verds amb una creu de color negre per apropar; al botó verd amb un guió per allunyar la imatge; o en les fletxes verdes per a mapes adjacents.


METAR-TAF: